Regional Weather Roundup
Issued by NWS Jackson, KY

Home | Current Version | Previous Version | Graphics & Text | Print | Product List | Glossary On
Versions: 1 2 3 4 5 6 7 8 9 10 11 12 13 14 15 16 17 18 19 20 21 22 23 24 25 26 27 28 29 30 31 32 33 34 35 36 37 38 39 40 41 42 43 44 45 46 47 48 49 50
000
ASUS43 KJKL 180710
RWRJKL

EAST KENTUCKY HOURLY WEATHER ROUNDUP
NATIONAL WEATHER SERVICE JACKSON KY
200 AM EST SAT NOV 18 2017

NOTE: "FAIR" INDICATES FEW OR NO CLOUDS BELOW 12,000 FEET WITH
NO SIGNIFICANT WEATHER AND/OR OBSTRUCTIONS TO VISIBILITY.

* THESE REPORTS ARE NOT UNDER NWS QUALITY CONTROL AND MAY NOT
  REPORT WEATHER SUCH AS PRECIPITATION AND FOG.

KYZ079-080-083-085-087-088-110-112-115-119-120-180800
...EASTERN KENTUCKY...

CITY           SKY/WX    TMP DP  RH WIND       PRES   REMARKS
JACKSON        CLOUDY    53  33  46 VRB5      29.86F
LONDON         MOCLDY    54  35  48 S3        29.88F
SOMERSET*      CLOUDY    55  37  50 S9G16     29.89F
MONTICELLO*    CLOUDY    59  40  49 VRB7      29.90S
WILLIAMSBURG*  MOSUNNY   55  37  50 S10       29.90F
MIDDLESBORO*   CLOUDY    56  36  47 S8G23     29.95F
HARLAN APT*    CLOUDY    52  32  46 CALM      29.94F
PIKE CO APT*     N/A     53  30  41 S8        29.88F
BIG SANDY APT* CLOUDY    53  30  40 S8        29.87S
MOREHEAD APT*  CLOUDY    55  34  44 S10G20    29.82F
$$

KYZ035-036-041-042-044-050-067-078-099-180800
...CENTRAL KENTUCKY...

CITY           SKY/WX    TMP DP  RH WIND       PRES   REMARKS
MT STERLING*   CLOUDY    55  36  47 W10G17    29.83S
FLEMING/MASON* CLOUDY    53  36  52 SW10G16   29.80S
DANVILLE*      CLOUDY    55  37  50 SW12G20   29.86R
LEXINGTON      LGT RAIN  56  38  50 S14       29.81S
FRANKFORT      CLOUDY    59  35  40 S20G30    29.76F
LOUISVILLE     LGT RAIN  60  41  49 S17G28    29.73F
LEBANON*         N/A     57  36  44 S16G26    29.80F
GLASGOW*       CLOUDY    60  36  40 S15G23    29.83F
BOWLING GREEN  CLOUDY    61  39  44 S21G32    29.81F
$$

KYZ091>093-OHZ055-061-077-WVZ005-015-034-035-042-180800
...SOUTHERN OHIO/WEST VIRGINIA...

CITY           SKY/WX    TMP DP  RH WIND       PRES   REMARKS
COVINGTON      CLOUDY    55  40  56 S16G26    29.70F
COLUMBUS       LGT RAIN  47  36  65 S7        29.73F
DAYTON         LGT RAIN  48  41  76 S20G26    29.68F
WILMINGTON     LGT RAIN  49  39  68 S15       29.71F
HUNTINGTON     CLOUDY    48  28  46 SW6       29.83F
CHARLESTON     CLOUDY    37  32  82 CALM      29.84F
PINEVILLE*     PTCLDY    39  34  80 MISG      29.97F
BECKLEY        CLOUDY    46  24  42 SE13      29.93F
BLUEFIELD      CLOUDY    47  24  40 S5        29.95F
LOGAN CO APT*    N/A     54  25  32 S10G16    29.87F
$$

VAZ002-007-008-TNZ017-027-036-066-071-180800
...SOUTHWEST VIRGINIA/EAST TENNESSEE...

CITY           SKY/WX    TMP DP  RH WIND       PRES   REMARKS
WISE*          CLOUDY    50  32  50 S9G17     29.95F
JONESVILLE*      N/A     39  36  87 CALM      30.00S
ABINGDON*      CLOUDY    46  34  64 CALM      29.98S
BRISTOL        CLOUDY    42  37  82 CALM      29.98F
MORRISTOWN*    SUNNY     45  37  76 CALM      29.97F
SEVIERVILLE*   SUNNY     41  37  87 CALM      29.98S
KNOXVILLE      CLOUDY    46  43  89 CALM      29.96F
LAFOLLETTE*    SUNNY     57  37  47 SW12G18   29.98S
OAK RIDGE      MOCLDY    51  40  65 CALM      29.99F
CROSSVILLE     CLOUDY    53  39  59 S10G22    29.96R
NASHVILLE      MOCLDY    59  39  47 S13       29.87F
$$

...KEY TO REMARKS...
VSB - VISIBILITY IN MILES
WCI - WIND CHILL INDEX
HX  - HEAT INDEX

$$



USA.gov is the U.S. government's official web portal to all federal, state and local government web resources and services.